DECAYED

CZ-6A DEB, 54271 (Decayed)

Orbit data source: Space-Track

CZ-6A DEB, 54271 was space debris in SSO originally from a launch on Fri, 11 Nov 2022 UTC launched from the Taiyaun Space Center, China (TSC). Debris objects in space refer to the collection of defunct objects orbiting the Earth. Examples of debris include non-operational satellites, rocket bodies, and fragments generated from explosions, collisions, or faulty payload assembly.

Loading next visibility...
Identifier
54271, 2022-151N
Orbit
Decayed
Country
Flag of CNCN / PRC
Related business
Manufacturer
SAST
Mission
Decayed spacecraft
Bus & Motor
Unknown
Mass
Unknown
Launch date (UTC)
2022-11-11 (4 years ago)
Launch vehicle
Unknown
Launch site
Taiyaun Space Center, China (TSC)
Object type
Payload
Rocket body
Debris
Shape & HBR
Unknown shape, 0.1 m
Radar Cross Section
Medium (>0.1 m² and <1 m²)

Expand to show TLE details & history
Last TLE update: 6 months ago

TLE from 6 months ago
0 CZ-6A DEB
1 54271U 22151N   26053.08897778  .08553051  00000-0  37550-1 0  9998
2 54271  98.6768  95.1507 0003134 168.5804 191.5530 15.79574574 93926
Epoch: 2026-02-22T02:08Z
TLE epoch observation values (Epoch: 2026-02-22T02:08:07.680Z)
Latitude
-0.0001°
Longitude
-88.88351°
Altitude
336.836 km
Speed
7.705 km/s
True Right ascension
06h 20m 36s
True Declination
0° 00' 00"
Sunlit
Object was in full shadow at epoch
Visualization orbit readout
Latitude
Unknown
Longitude
Unknown
Altitude
Unknown
Speed
Unknown
Apparent Right ascension
Unknown
Apparent Declination
Unknown
Sunlit
N/A
Visualization observer readout
Local Sidereal Time
06:33:31
Azimuth
Unknown
Elevation
Unknown
Doppler factor
Unknown
Orbital elements
Apogee altitude
330.694 km
Perigee altitude
326.491 km
Semi-major axis
6,706.729 km
Eccentricity
0.00031
Inclination
98.6768°
RAAN
95.1507°
Arg. of periapsis
168.5804°
True anomaly
191.54581°
Mean anomaly
191.553°
Eccentric anomaly
191.5494°
Mean motion
3.95164 °/min
Orbital period
91.1 mins
BSTAR
0.03755
Loading maneuver chart data...
Computing Atmospheric mass density...
Loading historical data...
Loading historical data...
Loading historical data...
Loading historical data...
Loading historical data...
Loading historical data...
Loading historical data...

Documentation

Showing up to 5 results
|